Regional Weather Roundup
Issued by NWS

Home | Current Version | Previous Version | Text Only | Print | Product List | Glossary On
Versions: 1 2 3 4 5 6 7 8 9 10 11 12 13 14 15 16 17 18 19 20 21 22 23 24 25 26 27 28 29 30 31 32 33 34 35 36 37 38 39 40 41 42 43 44 45 46 47 48 49 50
785
ASUS43 KDTX 290701
RWRMI
MICHIGAN HOURLY REGIONAL WEATHER ROUNDUP
NATIONAL WEATHER SERVICE DETROIT/PONTIAC MI
300 AM EDT MON MAY 29 2017

NOTE: "FAIR" INDICATES FEW OR NO CLOUDS BELOW 12,000 FEET WITH NO
SIGNIFICANT WEATHER AND/OR OBSTRUCTION TO VISIBILITY.

MIZ047>049-052>055-059>063-066>070-074>076-081>083-290800-
SOUTHEAST LOWER MICHIGAN

CITY           SKY/WX    TMP DP  RH WIND       PRES   REMARKS
ADRIAN         CLEAR     57  54  89 W6        29.77R
ALMA           CLEAR     56  54  92 SW6       29.71R
ANN ARBOR      CLEAR     53  53 100 SW3       29.74R
BAD AXE        CLOUDY    59  59 100 W5        29.68S
CARO           FOG       55  55 100 CALM      29.70R VSB 1/2
DETROIT CITY   CLEAR     60  59  96 W8        29.73R
DETROIT        PTCLDY    60  56  86 W7        29.75R
FLINT          CLEAR     56  54  93 SW6       29.72R
GROSSE ILE     CLEAR     59  56  91 W3        29.73R
HILLSDALE      PTCLDY    55  52  88 SW5       29.77S
HOWELL         CLEAR     55  52  89 SW3       29.73S

CITY           SKY/WX    TMP DP  RH WIND       PRES   REMARKS
JACKSON        CLEAR     57  53  86 SW7       29.76R
LAMBERTVILLE   CLEAR     59  56  89 W5        29.75F
LANSING        CLEAR     58  52  80 SW6       29.74R
LAPEER         FAIR      60  58  92 W6        29.71R
MASON          CLEAR     57  53  88 CALM      29.75R
MONROE         CLEAR     59  57  94 W3        29.74S
MT. CLEMENS    CLEAR     60  60 100 W8        29.70R
PONTIAC        CLEAR     59  55  87 SW6       29.72R
PORT HOPE        N/A     56  54  93 SE5       29.66S
PORT HURON     CLOUDY    61  57  88 SW5       29.70R
TRI CITIES     CLEAR     59  55  87 S5        29.71R
MIDLAND        FAIR      54  53  96 CALM      29.70R
TROY           CLEAR     61  58  90 W7        29.75R
SAGINAW HB     MOCLDY    61  54  77 SW6       29.71R
$$
MIZ043>046-050>051-056>058-064>065-071>073-077>080-290800-
SOUTHWEST LOWER MICHIGAN

CITY           SKY/WX    TMP DP  RH WIND       PRES   REMARKS
BATTLE CREEK   CLEAR     58  54  86 SW8       29.77R
BENTON HARBOR  CLEAR     59  48  67 CALM      29.77R
BIG RAPIDS     CLEAR     53  50  87 CALM      29.70S
COLDWATER      CLEAR     58  56  91 SW6       29.77S
FREMONT        FOG       51  51 100 CALM      29.71S VSB 1
HOLLAND        CLEAR     56  48  74 W5        29.75R
GRAND RAPIDS   CLEAR     57  55  93 SW8       29.74R
IONIA          FAIR      57  53  86 W8        29.72R
KALAMAZOO      CLEAR     57  52  83 SW6       29.77R
LUDINGTON      CLEAR     54  50  87 W5        29.69R
MARSHALL       CLEAR     58  56  92 SW6       29.76R
MOUNT PLEASANT CLEAR     57  52  83 W6        29.70R
MUSKEGON       CLEAR     52  49  89 SW5       29.73R
SOUTH HAVEN    CLEAR     63  49  59 SW8       29.77R
$$
MIZ016>042-290800-
NORTHERN LOWER MICHIGAN

CITY           SKY/WX    TMP DP  RH WIND       PRES   REMARKS
ALPENA         FOG       54  54 100 W3        29.65S VSB 1/2
BEAVER ISLAND  CLEAR     53  51  92 SW9       29.63R
BELLAIRE       FOG       51  49  95 CALM      29.65S VSB 1/2
CADILLAC       CLEAR     51  50  97 SW5       29.68S
CHARLEVOIX     CLEAR     53  53 100 CALM      29.66F
FRANKFORT      CLEAR     47  44  89 CALM      29.66S
GAYLORD        PTCLDY    54  50  86 W3        29.65S FOG
GRAYLING       CLEAR     50  50  99 SW3       29.67S
HARBOR SPRINGS FOG       50  50 100 CALM      29.63S VSB<1/4
HOUGHTON LAKE  CLEAR     57  52  83 SW5       29.68S
MANISTEE       CLEAR     47  46  97 CALM      29.67S
OSCODA         MOCLDY    53  52  97 SW5       29.65F
PELLSTON       CLEAR     51  48  89 SE3       29.63S
ROGERS CITY    FOG       55  54  97 CALM      29.64S VSB 1/4
TRAVERSE CITY  CLEAR     53  51  93 CALM      29.63F
$$
MIZ007>008-015-290800-
EASTERN UPPER MICHIGAN

CITY           SKY/WX    TMP DP  RH WIND       PRES   REMARKS
KINROSS        CLOUDY    53  52  96 CALM      29.64R FOG
MACKINAC ISLAN MOCLDY    49  49 100 SW3       29.63R FOG
NEWBERRY       CLOUDY    53  52  97 SW10      29.62S
S. S. MARIE    FOG       55  53  93 CALM      29.63S VSB 1/4
MUNISING         N/A     54  53  97 SW6       29.60F
$$
MIZ004>006-011>014-085-290800-
CENTRAL UPPER MICHIGAN

CITY           SKY/WX    TMP DP  RH WIND       PRES   REMARKS
MANISTIQUE     FOG       50  47  90 CALM      29.61F VSB 1/4
ESCANABA       FOG       51  50  96 CALM      29.63F VSB 1/2
SAWYER-GWINN   CLOUDY    53  52  97 SW8       29.62S
$$
MIZ001>003-009>011-084-290800-
WESTERN UPPER MICHIGAN

CITY           SKY/WX    TMP DP  RH WIND       PRES   REMARKS
IRON MOUNTAIN  PTCLDY    47  45  93 CALM      29.62S FOG
HOUGHTON       RAIN      52  49  89 CALM      29.57F FOG
COPPER HARBOR    N/A     51  50  96 SW6       29.57F
IRONWOOD       CLOUDY    52  48  86 SW12      29.62S
$$

ABBREVIATIONS USED IN REMARKS
   TC - TEMPERATURE IN CELSIUS
  WCI - WIND CHILL INDEX
   HX - HEAT INDEX
  VSB - VISIBILITY





USA.gov is the U.S. government's official web portal to all federal, state and local government web resources and services.